Observations for Trim Market St
| Time | AQI | Temp °C | Hum % | Pres Pa | CO μg/m³ | H₂S μg/m³ | NO μg/m³ | NO₂ μg/m³ | O₃ μg/m³ | SO₂ μg/m³ | PM1 μg/m³ | PM2.5 μg/m³ | PM10 μg/m³ |
|---|---|---|---|---|---|---|---|---|---|---|---|---|---|
| Sunday 16 August 2026 | |||||||||||||
| 15:13 | 2 | 19.8 | 68 | 53,810 | 0.16 | 6.92 | 1.25 | 48.19 | 57.74 | 0 | 0.71 | 3.16 | 4.97 |
| 15:12 | 2 | 19.7 | 68 | 53,930 | 0.07 | 2.84 | 1.22 | 31.19 | 63.91 | 0 | 0.71 | 2.19 | 3.68 |
| 15:08 | 2 | 19.7 | 67 | 54,027 | 0.02 | 4.76 | 1.21 | 27.18 | 68.22 | 0 | 0.71 | 2.69 | 4.32 |
| 15:06 | 2 | 19.6 | 67 | 54,311 | 0 | 3.81 | 1.23 | 29.03 | 67.48 | 0 | 0.71 | 2.21 | 3.66 |
| 15:00 | 2 | 19.6 | 66 | 54,921 | 0 | 3.15 | 1.23 | 16.46 | 75.97 | 0 | 0 | 1.75 | 2.99 |
| 14:55 | 2 | 19.7 | 66 | 55,448 | 0 | 2.94 | 1.22 | 12.77 | 81.76 | 0 | 0.71 | 3.26 | 4.92 |
| 14:53 | 2 | 19.8 | 65 | 55,579 | 0 | 5.89 | 1.22 | 18.27 | 74.22 | 0 | 0 | 2.29 | 3.6 |
| 14:52 | 2 | 19.9 | 65 | 55,716 | 0 | 6.97 | 1.22 | 26.36 | 71.35 | 0 | 0.71 | 2.31 | 4.9 |
| 14:51 | 2 | 19.9 | 65 | 55,900 | 0 | 8.39 | 1.22 | 34.35 | 66.04 | 0 | 0.71 | 2.81 | 4.89 |
| 14:50 | 2 | 20 | 64 | 56,089 | 0 | 6.31 | 1.22 | 22 | 72.38 | 0 | 0.71 | 2.33 | 4.89 |
| 14:49 | 2 | 20 | 64 | 56,239 | 0 | 7.15 | 1.22 | 19.53 | 74.71 | 0 | 0 | 2.34 | 4.22 |
| 14:48 | 2 | 20.1 | 64 | 56,359 | 0.05 | 8.29 | 1.22 | 34.46 | 69.13 | 0 | 0.71 | 2.36 | 3.55 |
| 14:47 | 2 | 20.2 | 64 | 56,473 | 0.21 | 8.18 | 1.22 | 24.73 | 73.17 | 0 | 0.71 | 2.37 | 3.54 |
| 14:46 | 2 | 20.2 | 63 | 56,555 | 0.15 | 7.16 | 1.22 | 23.94 | 70.29 | 0 | 0 | 2.37 | 3.53 |
| 14:45 | 2 | 20.3 | 63 | 56,636 | 0.06 | 6.68 | 1.22 | 28.53 | 71.22 | 0 | 0.71 | 2.38 | 3.53 |
| 14:44 | 2 | 20.4 | 63 | 56,691 | 0 | 4.15 | 1.21 | 18.22 | 74.94 | 0 | 0.71 | 2.88 | 4.19 |
| 14:43 | 2 | 20.5 | 63 | 56,748 | 0 | 6.55 | 1.21 | 19.93 | 77.19 | 0 | 0.71 | 1.9 | 3.52 |
| 14:42 | 2 | 20.5 | 63 | 56,816 | 0 | 6.34 | 1.21 | 24.63 | 73.84 | 0 | 0.71 | 2.4 | 4.18 |
| 14:41 | 2 | 20.5 | 63 | 56,891 | 0 | 8.92 | 1.21 | 26.61 | 76.36 | 0 | 0 | 1.91 | 4.18 |
| 14:40 | 2 | 20.6 | 62 | 56,985 | 0 | 7.84 | 1.21 | 23.05 | 79.33 | 0 | 0.71 | 2.42 | 3.49 |